QPF
0.01 0.03 0.04 0.03 0.02 0.02 0.02 0.03 0.02 0.01 0.00 0.02 0.02 0.01 0.01 0.01 0.01 0.01 0.02 0.02 0.03 0.03 0.02 0.02 0.01 0.02 0.01 0.01 0.01 0.00 0.00 0.00 0.00 0.00 0.00 0.00 0.00 0.00 0.01 0.01 0.00 0.00 0.00 0.00
0.03 0.03 0.02 0.01 0.01 0.01 0.01 0.02 0.02 0.01 0.01 0.02 0.02 0.02 0.01 0.01 0.01 0.01 0.01 0.02 0.02 0.03 0.03 0.01 0.01 0.01 0.01 0.01 0.01 0.00 0.00 0.00 0.00 0.00 0.00 0.00 0.00 0.00 0.00 0.01 0.01 0.00 0.00 0.00
0.03 0.02 0.00 0.01 0.01 0.01 0.01 0.02 0.01 0.01 0.01 0.02 0.02 0.03 0.02 0.01 0.01 0.01 0.01 0.02 0.03 0.02 0.01 0.01 0.00 0.01 0.01 0.01 0.01 0.01 0.00 0.00 0.00 0.00 0.00 0.00 0.00 0.00 0.01 0.01 0.01 0.01 0.00 0.00
0.02 0.01 0.00 0.01 0.01 0.01 0.02 0.01 0.01 0.01 0.02 0.03 0.02 0.04 0.02 0.01 0.01 0.00 0.01 0.02 0.03 0.02 0.01 0.00 0.00 0.00 0.00 0.01 0.01 0.01 0.00 0.00 0.00 0.00 0.00 0.00 0.00 0.01 0.01 0.01 0.01 0.02 0.01 0.01
0.02 0.01 0.01 0.01 0.01 0.01 0.02 0.01 0.00 0.01 0.01 0.02 0.01 0.03 0.02 0.01 0.01 0.00 0.00 0.01 0.02 0.02 0.01 0.00 0.00 0.00 0.00 0.00 0.00 0.01 0.00 0.00 0.00 0.00 0.00 0.00 0.00 0.01 0.00 0.00 0.00 0.00 0.01 0.01
0.01 0.00 0.01 0.01 0.00 0.00 0.00 0.00 0.00 0.01 0.02 0.03 0.01 0.01 0.02 0.00 0.00 0.00 0.00 0.01 0.02 0.03 0.02 0.01 0.00 0.00 0.00 0.00 0.00 0.00 0.01 0.00 0.01 0.01 0.00 0.00 0.01 0.01 0.01 0.00 0.01 0.01 0.01 0.01
0.01 0.01 0.00 0.00 0.00 0.00 0.00 0.01 0.03 0.03 0.04 0.03 0.00 0.01 0.01 0.00 0.00 0.00 0.00 0.01 0.01 0.01 0.02 0.01 0.01 0.00 0.00 0.00 0.01 0.01 0.01 0.02 0.01 0.01 0.01 0.00 0.01 0.01 0.01 0.01 0.01 0.01 0.01 0.01
0.02 0.02 0.00 0.00 0.00 0.01 0.00 0.01 0.04 0.05 0.03 0.01 0.00 0.01 0.00 0.00 0.00 0.00 0.00 0.00 0.00 0.00 0.01 0.01 0.02 0.01 0.00 0.01 0.02 0.02 0.03 0.02 0.01 0.01 0.01 0.00 0.00 0.02 0.01 0.00 0.01 0.01 0.01 0.01
0.02 0.02 0.00 0.00 0.00 0.00 0.01 0.01 0.01 0.02 0.02 0.02 0.01 0.01 0.00 0.00 0.00 0.00 0.00 0.00 0.01 0.01 0.00 0.00 0.02 0.02 0.00 0.01 0.02 0.02 0.03 0.03 0.02 0.01 0.00 0.01 0.02 0.02 0.01 0.01 0.01 0.01 0.01 0.01
0.01 0.02 0.01 0.00 0.00 0.00 0.00 0.00 0.01 0.03 0.04 0.05 0.02 0.02 0.02 0.00 0.00 0.00 0.01 0.02 0.01 0.01 0.00 0.00 0.01 0.01 0.01 0.01 0.01 0.03 0.03 0.03 0.02 0.01 0.01 0.01 0.02 0.01 0.01 0.01 0.00 0.01 0.01 0.01
0.01 0.02 0.01 0.01 0.01 0.01 0.01 0.01 0.01 0.03 0.03 0.05 0.05 0.03 0.01 0.00 0.00 0.00 0.01 0.02 0.01 0.00 0.00 0.00 0.01 0.01 0.01 0.01 0.01 0.02 0.02 0.02 0.02 0.01 0.01 0.01 0.02 0.01 0.01 0.01 0.01 0.01 0.02 0.02
0.01 0.01 0.01 0.01 0.01 0.00 0.00 0.00 0.01 0.03 0.03 0.03 0.04 0.02 0.00 0.00 0.00 0.00 0.01 0.01 0.00 0.00 0.00 0.00 0.00 0.01 0.00 0.00 0.01 0.02 0.02 0.02 0.02 0.02 0.01 0.02 0.04 0.02 0.01 0.01 0.02 0.02 0.02 0.02
0.01 0.02 0.02 0.03 0.03 0.01 0.01 0.01 0.00 0.01 0.02 0.03 0.03 0.02 0.01 0.00 0.01 0.01 0.00 0.00 0.00 0.00 0.00 0.00 0.00 0.01 0.01 0.01 0.01 0.02 0.02 0.03 0.02 0.02 0.03 0.03 0.04 0.03 0.02 0.01 0.01 0.02 0.02 0.01
0.02 0.02 0.02 0.04 0.03 0.01 0.01 0.01 0.00 0.00 0.01 0.02 0.01 0.01 0.00 0.01 0.01 0.01 0.00 0.00 0.00 0.00 0.00 0.00 0.00 0.01 0.01 0.01 0.02 0.02 0.02 0.03 0.03 0.04 0.05 0.06 0.07 0.05 0.03 0.02 0.02 0.02 0.02 0.02
0.01 0.01 0.01 0.01 0.00 0.01 0.01 0.01 0.00 0.00 0.00 0.00 0.00 0.00 0.00 0.00 0.00 0.00 0.00 0.00 0.00 0.00 0.00 0.00 0.00 0.01 0.01 0.02 0.02 0.02 0.02 0.02 0.03 0.04 0.05 0.07 0.08 0.06 0.05 0.03 0.03 0.02 0.01 0.01
0.01 0.01 0.01 0.00 0.01 0.00 0.00 0.00 0.00 0.00 0.00 0.00 0.00 0.00 0.00 0.00 0.00 0.00 0.00 0.00 0.00 0.00 0.00 0.00 0.00 0.01 0.02 0.01 0.02 0.03 0.03 0.03 0.04 0.04 0.05 0.06 0.08 0.08 0.07 0.05 0.04 0.03 0.02 0.02
0.02 0.01 0.01 0.01 0.01 0.01 0.01 0.00 0.00 0.00 0.00 0.00 0.00 0.00 0.00 0.00 0.00 0.00 0.00 0.00 0.00 0.00 0.00 0.00 0.00 0.00 0.01 0.01 0.02 0.03 0.04 0.04 0.05 0.05 0.04 0.05 0.07 0.07 0.06 0.06 0.04 0.03 0.03 0.02
0.04 0.03 0.03 0.02 0.02 0.02 0.01 0.00 0.00 0.00 0.00 0.00 0.00 0.00 0.00 0.00 0.00 0.00 0.00 0.00 0.00 0.00 0.00 0.00 0.00 0.00 0.00 0.01 0.01 0.02 0.03 0.04 0.04 0.05 0.05 0.05 0.06 0.06 0.05 0.05 0.05 0.05 0.04 0.02
0.01 0.02 0.03 0.03 0.03 0.02 0.01 0.00 0.00 0.00 0.00 0.00 0.00 0.00 0.00 0.00 0.00 0.00 0.00 0.00 0.00 0.00 0.00 0.00 0.00 0.00 0.00 0.00 0.01 0.01 0.01 0.02 0.03 0.03 0.04 0.04 0.05 0.06 0.06 0.05 0.06 0.05 0.04 0.03
0.01 0.02 0.03 0.03 0.04 0.03 0.02 0.01 0.00 0.00 0.01 0.00 0.00 0.00 0.00 0.00 0.00 0.00 0.00 0.00 0.00 0.00 0.00 0.00 0.00 0.00 0.00 0.00 0.01 0.02 0.02 0.02 0.01 0.01 0.01 0.02 0.03 0.04 0.04 0.04 0.05 0.06 0.07 0.06
0.02 0.02 0.03 0.03 0.03 0.02 0.02 0.02 0.01 0.01 0.01 0.00 0.00 0.00 0.00 0.00 0.00 0.00 0.00 0.00 0.00 0.00 0.00 0.00 0.00 0.00 0.00 0.00 0.01 0.01 0.02 0.02 0.02 0.01 0.01 0.02 0.03 0.03 0.03 0.03 0.03 0.03 0.04 0.07
0.03 0.03 0.03 0.03 0.04 0.03 0.02 0.02 0.02 0.01 0.01 0.01 0.00 0.00 0.00 0.00 0.00 0.00 0.00 0.00 0.00 0.00 0.00 0.00 0.00 0.00 0.01 0.00 0.00 0.00 0.01 0.02 0.03 0.02 0.01 0.02 0.04 0.04 0.04 0.03 0.03 0.03 0.03 0.04
0.03 0.04 0.06 0.04 0.03 0.02 0.01 0.01 0.01 0.00 0.00 0.00 0.00 0.00 0.00 0.00 0.00 0.00 0.00 0.00 0.00 0.00 0.00 0.00 0.00 0.00 0.00 0.00 0.00 0.00 0.01 0.02 0.03 0.02 0.02 0.02 0.03 0.05 0.05 0.04 0.04 0.04 0.04 0.04
0.02 0.02 0.02 0.01 0.01 0.01 0.01 0.00 0.00 0.00 0.00 0.00 0.00 0.00 0.00 0.00 0.00 0.00 0.00 0.00 0.00 0.00 0.00 0.00 0.00 0.00 0.01 0.01 0.01 0.01 0.01 0.01 0.02 0.03 0.03 0.03 0.03 0.04 0.05 0.04 0.04 0.04 0.04 0.04
0.01 0.01 0.02 0.01 0.00 0.01 0.01 0.00 0.00 0.00 0.00 0.00 0.00 0.00 0.00 0.00 0.00 0.00 0.00 0.00 0.00 0.00 0.00 0.00 0.00 0.00 0.00 0.00 0.01 0.01 0.01 0.01 0.01 0.02 0.03 0.03 0.03 0.02 0.03 0.03 0.04 0.04 0.04 0.04
0.00 0.01 0.01 0.01 0.01 0.01 0.01 0.00 0.00 0.00 0.00 0.00 0.00 0.00 0.00 0.00 0.00 0.00 0.00 0.00 0.00 0.00 0.00 0.00 0.00 0.00 0.00 0.00 0.00 0.00 0.00 0.01 0.01 0.01 0.01 0.02 0.02 0.02 0.02 0.02 0.03 0.03 0.03 0.04
MSLP
1014.33 1015.28 1016.12 1016.83 1017.41 1017.87 1018.25 1018.54 1018.76 1018.92 1018.99 1018.96 1018.84 1018.63 1018.36 1018.06 1017.78 1017.55 1017.41 1017.36 1017.39 1017.49 1017.61 1017.74 1017.83 1017.89 1017.91 1017.92 1017.92 1017.96 1018.03 1018.15 1018.31 1018.49 1018.66 1018.79 1018.86 1018.86 1018.79 1018.66 1018.49 1018.30 1018.12 1017.98
1014.86 1015.67 1016.37 1016.94 1017.42 1017.82 1018.16 1018.48 1018.75 1018.97 1019.11 1019.13 1019.04 1018.83 1018.53 1018.19 1017.87 1017.61 1017.46 1017.42 1017.49 1017.64 1017.82 1018.00 1018.13 1018.21 1018.22 1018.21 1018.19 1018.20 1018.26 1018.40 1018.58 1018.80 1019.02 1019.20 1019.31 1019.33 1019.27 1019.13 1018.94 1018.74 1018.56 1018.42
1015.20 1015.86 1016.40 1016.85 1017.24 1017.61 1017.97 1018.34 1018.69 1018.99 1019.20 1019.27 1019.19 1018.95 1018.61 1018.21 1017.82 1017.52 1017.35 1017.32 1017.44 1017.65 1017.90 1018.14 1018.33 1018.43 1018.46 1018.43 1018.40 1018.39 1018.45 1018.58 1018.80 1019.05 1019.32 1019.54 1019.70 1019.75 1019.71 1019.58 1019.40 1019.21 1019.04 1018.91
1015.39 1015.88 1016.29 1016.64 1016.98 1017.34 1017.75 1018.19 1018.64 1019.03 1019.30 1019.40 1019.30 1019.01 1018.59 1018.09 1017.63 1017.26 1017.06 1017.05 1017.20 1017.49 1017.83 1018.16 1018.41 1018.57 1018.62 1018.60 1018.56 1018.53 1018.58 1018.72 1018.95 1019.24 1019.55 1019.82 1020.03 1020.13 1020.12 1020.02 1019.87 1019.70 1019.55 1019.45
1015.47 1015.82 1016.11 1016.39 1016.71 1017.11 1017.59 1018.13 1018.67 1019.14 1019.45 1019.54 1019.40 1019.03 1018.49 1017.88 1017.31 1016.87 1016.63 1016.63 1016.83 1017.20 1017.64 1018.06 1018.41 1018.63 1018.73 1018.73 1018.68 1018.65 1018.69 1018.83 1019.07 1019.38 1019.72 1020.05 1020.30 1020.46 1020.50 1020.45 1020.34 1020.21 1020.09 1020.01
1015.51 1015.74 1015.95 1016.19 1016.52 1016.97 1017.53 1018.17 1018.80 1019.32 1019.65 1019.72 1019.50 1019.02 1018.35 1017.61 1016.92 1016.40 1016.13 1016.13 1016.39 1016.84 1017.38 1017.92 1018.36 1018.66 1018.81 1018.84 1018.80 1018.77 1018.79 1018.92 1019.16 1019.49 1019.87 1020.23 1020.54 1020.75 1020.85 1020.85 1020.79 1020.70 1020.63 1020.59
1015.55 1015.69 1015.84 1016.07 1016.44 1016.95 1017.60 1018.32 1019.01 1019.57 1019.89 1019.91 1019.59 1019.00 1018.20 1017.33 1016.54 1015.96 1015.65 1015.67 1015.98 1016.50 1017.14 1017.78 1018.31 1018.69 1018.90 1018.96 1018.94 1018.90 1018.91 1019.03 1019.27 1019.60 1019.99 1020.39 1020.74 1021.00 1021.15 1021.21 1021.20 1021.17 1021.13 1021.13
1015.59 1015.67 1015.79 1016.03 1016.44 1017.01 1017.73 1018.51 1019.24 1019.81 1020.10 1020.06 1019.66 1018.96 1018.06 1017.10 1016.23 1015.60 1015.28 1015.31 1015.66 1016.25 1016.97 1017.69 1018.30 1018.74 1019.00 1019.09 1019.08 1019.04 1019.05 1019.16 1019.39 1019.72 1020.12 1020.54 1020.92 1021.22 1021.41 1021.52 1021.56 1021.56 1021.57 1021.61
1015.61 1015.65 1015.77 1016.03 1016.47 1017.09 1017.85 1018.66 1019.40 1019.96 1020.22 1020.12 1019.65 1018.89 1017.92 1016.91 1016.01 1015.36 1015.05 1015.10 1015.49 1016.12 1016.89 1017.65 1018.32 1018.80 1019.09 1019.21 1019.22 1019.19 1019.20 1019.30 1019.53 1019.86 1020.26 1020.69 1021.09 1021.41 1021.63 1021.77 1021.84 1021.88 1021.93 1022.00
1015.56 1015.60 1015.73 1016.00 1016.46 1017.11 1017.87 1018.68 1019.40 1019.93 1020.15 1020.01 1019.51 1018.72 1017.75 1016.75 1015.87 1015.25 1014.96 1015.04 1015.45 1016.10 1016.88 1017.66 1018.33 1018.83 1019.14 1019.28 1019.31 1019.30 1019.32 1019.44 1019.67 1020.01 1020.41 1020.84 1021.24 1021.57 1021.82 1021.97 1022.06 1022.12 1022.19 1022.29
1015.42 1015.47 1015.62 1015.91 1016.38 1017.01 1017.75 1018.52 1019.19 1019.66 1019.84 1019.68 1019.19 1018.43 1017.52 1016.58 1015.77 1015.21 1014.97 1015.08 1015.49 1016.12 1016.88 1017.63 1018.28 1018.78 1019.09 1019.25 1019.31 1019.34 1019.40 1019.54 1019.80 1020.14 1020.56 1020.99 1021.39 1021.73 1021.97 1022.13 1022.23 1022.30 1022.39 1022.51
1015.19 1015.28 1015.46 1015.76 1016.22 1016.81 1017.49 1018.18 1018.77 1019.17 1019.31 1019.14 1018.69 1018.00 1017.18 1016.36 1015.66 1015.19 1015.01 1015.14 1015.54 1016.13 1016.83 1017.52 1018.13 1018.59 1018.90 1019.08 1019.18 1019.26 1019.38 1019.58 1019.88 1020.26 1020.69 1021.13 1021.53 1021.86 1022.10 1022.26 1022.37 1022.45 1022.55 1022.68
1014.92 1015.07 1015.28 1015.59 1016.02 1016.55 1017.14 1017.72 1018.21 1018.52 1018.61 1018.44 1018.04 1017.45 1016.76 1016.07 1015.51 1015.14 1015.02 1015.16 1015.53 1016.06 1016.68 1017.28 1017.82 1018.24 1018.55 1018.76 1018.91 1019.07 1019.26 1019.53 1019.89 1020.31 1020.77 1021.23 1021.63 1021.97 1022.21 1022.38 1022.50 1022.59 1022.70 1022.85
1014.68 1014.90 1015.16 1015.48 1015.87 1016.32 1016.79 1017.24 1017.60 1017.81 1017.84 1017.66 1017.31 1016.82 1016.26 1015.73 1015.29 1015.03 1014.97 1015.11 1015.44 1015.89 1016.40 1016.91 1017.37 1017.75 1018.05 1018.29 1018.51 1018.74 1019.03 1019.39 1019.81 1020.29 1020.79 1021.26 1021.68 1022.03 1022.29 1022.47 1022.61 1022.73 1022.86 1023.03
1014.56 1014.85 1015.16 1015.49 1015.83 1016.19 1016.54 1016.84 1017.05 1017.14 1017.10 1016.91 1016.59 1016.19 1015.75 1015.35 1015.04 1014.87 1014.85 1014.98 1015.25 1015.61 1016.02 1016.42 1016.80 1017.14 1017.43 1017.71 1018.00 1018.32 1018.69 1019.14 1019.64 1020.17 1020.70 1021.21 1021.65 1022.02 1022.30 1022.52 1022.69 1022.85 1023.01 1023.21
1014.60 1014.97 1015.32 1015.65 1015.95 1016.21 1016.42 1016.57 1016.63 1016.60 1016.47 1016.25 1015.96 1015.62 1015.29 1015.00 1014.79 1014.68 1014.69 1014.80 1015.00 1015.27 1015.57 1015.88 1016.18 1016.48 1016.77 1017.08 1017.42 1017.82 1018.27 1018.79 1019.35 1019.93 1020.50 1021.03 1021.50 1021.89 1022.21 1022.48 1022.70 1022.91 1023.12 1023.35
1014.81 1015.25 1015.63 1015.94 1016.19 1016.35 1016.44 1016.44 1016.36 1016.21 1016.00 1015.74 1015.46 1015.18 1014.92 1014.71 1014.57 1014.51 1014.52 1014.61 1014.75 1014.93 1015.13 1015.35 1015.58 1015.83 1016.11 1016.44 1016.82 1017.28 1017.79 1018.36 1018.96 1019.57 1020.16 1020.71 1021.20 1021.63 1022.00 1022.32 1022.60 1022.87 1023.14 1023.41
1015.13 1015.60 1015.99 1016.28 1016.46 1016.54 1016.51 1016.39 1016.20 1015.95 1015.67 1015.38 1015.10 1014.85 1014.65 1014.51 1014.42 1014.38 1014.39 1014.44 1014.52 1014.62 1014.73 1014.87 1015.04 1015.25 1015.51 1015.84 1016.25 1016.72 1017.26 1017.85 1018.47 1019.08 1019.68 1020.24 1020.75 1021.21 1021.62 1022.00 1022.35 1022.68 1023.01 1023.32
1015.45 1015.91 1016.28 1016.53 1016.65 1016.64 1016.53 1016.32 1016.04 1015.72 1015.40 1015.10 1014.84 1014.63 1014.47 1014.38 1014.32 1014.31 1014.31 1014.33 1014.35 1014.38 1014.42 1014.49 1014.59 1014.76 1014.99 1015.31 1015.71 1016.18 1016.72 1017.30 1017.90 1018.50 1019.08 1019.64 1020.16 1020.65 1021.10 1021.53 1021.94 1022.33 1022.70 1023.05
1015.63 1016.05 1016.36 1016.55 1016.61 1016.54 1016.36 1016.10 1015.78 1015.44 1015.12 1014.84 1014.61 1014.45 1014.34 1014.29 1014.27 1014.26 1014.26 1014.25 1014.23 1014.20 1014.19 1014.20 1014.25 1014.37 1014.57 1014.85 1015.22 1015.67 1016.17 1016.72 1017.29 1017.86 1018.42 1018.96 1019.48 1019.98 1020.46 1020.93 1021.38 1021.81 1022.22 1022.59
1015.59 1015.92 1016.15 1016.27 1016.26 1016.15 1015.94 1015.66 1015.35 1015.04 1014.75 1014.52 1014.35 1014.25 1014.21 1014.20 1014.21 1014.23 1014.23 1014.20 1014.15 1014.08 1014.02 1013.99 1014.00 1014.07 1014.23 1014.47 1014.80 1015.20 1015.66 1016.16 1016.68 1017.21 1017.74 1018.26 1018.76 1019.26 1019.76 1020.24 1020.71 1021.16 1021.58 1021.95
1015.28 1015.49 1015.62 1015.66 1015.61 1015.47 1015.26 1015.00 1014.74 1014.49 1014.28 1014.13 1014.04 1014.01 1014.03 1014.08 1014.13 1014.17 1014.17 1014.14 1014.08 1013.99 1013.91 1013.84 1013.81 1013.86 1013.97 1014.17 1014.45 1014.80 1015.21 1015.66 1016.13 1016.62 1017.10 1017.59 1018.08 1018.57 1019.05 1019.52 1019.99 1020.42 1020.82 1021.18
1014.72 1014.81 1014.84 1014.80 1014.71 1014.56 1014.37 1014.17 1013.98 1013.82 1013.71 1013.66 1013.66 1013.71 1013.80 1013.91 1014.00 1014.07 1014.09 1014.07 1014.01 1013.92 1013.82 1013.74 1013.70 1013.71 1013.80 1013.96 1014.19 1014.49 1014.85 1015.25 1015.67 1016.12 1016.57 1017.02 1017.48 1017.94 1018.39 1018.83 1019.25 1019.65 1020.01 1020.32
1014.00 1013.97 1013.91 1013.81 1013.69 1013.55 1013.40 1013.27 1013.17 1013.11 1013.11 1013.15 1013.25 1013.38 1013.53 1013.69 1013.82 1013.92 1013.97 1013.98 1013.94 1013.86 1013.78 1013.70 1013.65 1013.66 1013.72 1013.84 1014.04 1014.30 1014.61 1014.96 1015.34 1015.74 1016.15 1016.57 1016.98 1017.40 1017.80 1018.19 1018.55 1018.88 1019.17 1019.42
1013.23 1013.11 1012.97 1012.83 1012.69 1012.58 1012.48 1012.43 1012.42 1012.45 1012.54 1012.67 1012.84 1013.03 1013.24 1013.44 1013.61 1013.75 1013.84 1013.88 1013.87 1013.84 1013.78 1013.73 1013.69 1013.70 1013.75 1013.85 1014.01 1014.23 1014.49 1014.79 1015.13 1015.49 1015.85 1016.22 1016.59 1016.94 1017.28 1017.60 1017.88 1018.13 1018.34 1018.52
1012.53 1012.33 1012.14 1011.97 1011.85 1011.76 1011.72 1011.73 1011.80 1011.90 1012.06 1012.25 1012.47 1012.71 1012.95 1013.19 1013.40 1013.57 1013.71 1013.80 1013.85 1013.87 1013.87 1013.85 1013.84 1013.86 1013.90 1013.98 1014.11 1014.28 1014.50 1014.75 1015.03 1015.33 1015.64 1015.96 1016.26 1016.55 1016.81 1017.04 1017.23 1017.39 1017.52 1017.62
Thickness
5750 5738 5730 5736 5741 5740 5739 5734 5730 5736 5747 5740 5734 5734 5739 5746 5746 5744 5743 5743 5742 5743 5746 5747 5747 5746 5745 5744 5742 5741 5739 5738 5736 5734 5731 5728 5727 5728 5728 5727 5727 5727 5727 5726
5735 5730 5742 5748 5747 5743 5738 5730 5729 5735 5746 5740 5734 5735 5743 5746 5745 5745 5744 5743 5744 5743 5743 5743 5743 5743 5742 5741 5740 5739 5737 5736 5734 5732 5730 5728 5727 5726 5725 5725 5724 5724 5723 5723
5728 5737 5749 5744 5739 5734 5732 5728 5728 5728 5736 5740 5733 5726 5737 5746 5749 5748 5749 5748 5747 5745 5742 5741 5740 5740 5739 5738 5737 5738 5736 5734 5733 5731 5729 5727 5724 5723 5721 5720 5720 5721 5721 5720
5732 5743 5742 5737 5734 5734 5723 5736 5735 5731 5724 5720 5727 5709 5729 5741 5740 5743 5745 5746 5746 5747 5745 5741 5739 5738 5737 5737 5737 5736 5735 5733 5731 5730 5726 5723 5718 5716 5717 5718 5718 5718 5718 5718
5728 5737 5734 5729 5734 5736 5730 5740 5735 5732 5725 5720 5727 5716 5725 5741 5733 5738 5743 5746 5747 5747 5746 5742 5740 5739 5738 5737 5736 5735 5733 5732 5730 5728 5726 5722 5719 5718 5718 5718 5716 5716 5716 5715
5733 5743 5740 5736 5741 5741 5739 5735 5732 5730 5722 5704 5723 5719 5717 5735 5740 5742 5746 5747 5747 5747 5746 5744 5742 5740 5737 5736 5733 5732 5730 5728 5728 5727 5725 5722 5719 5717 5715 5714 5713 5712 5713 5713
5720 5730 5739 5741 5730 5734 5732 5715 5700 5697 5696 5706 5734 5725 5727 5748 5755 5752 5749 5748 5748 5747 5744 5741 5739 5736 5734 5732 5730 5729 5726 5725 5725 5725 5723 5722 5719 5717 5715 5713 5711 5710 5709 5708
5706 5707 5728 5735 5729 5722 5724 5718 5696 5687 5695 5711 5728 5723 5737 5758 5761 5759 5756 5752 5748 5745 5743 5740 5738 5735 5732 5730 5728 5726 5724 5722 5723 5722 5722 5721 5720 5717 5715 5714 5712 5710 5709 5708
5707 5708 5732 5737 5739 5733 5719 5719 5727 5713 5713 5709 5719 5731 5741 5755 5752 5752 5751 5748 5744 5743 5742 5740 5737 5734 5731 5728 5726 5726 5723 5721 5720 5720 5719 5718 5717 5716 5714 5713 5712 5710 5708 5707
5717 5705 5720 5731 5733 5732 5730 5726 5717 5706 5693 5692 5709 5718 5721 5734 5739 5744 5744 5742 5742 5742 5740 5739 5736 5733 5731 5728 5726 5724 5723 5720 5718 5717 5716 5716 5715 5714 5713 5712 5709 5707 5706 5704
5720 5704 5707 5716 5713 5713 5718 5717 5716 5711 5708 5692 5689 5706 5744 5743 5743 5742 5743 5743 5741 5740 5738 5736 5734 5732 5730 5727 5724 5721 5719 5717 5716 5715 5714 5712 5712 5711 5710 5709 5707 5705 5703 5701
5717 5706 5698 5708 5725 5730 5723 5718 5714 5697 5698 5706 5696 5704 5749 5750 5749 5746 5742 5742 5742 5740 5738 5736 5733 5730 5727 5724 5721 5719 5717 5715 5714 5713 5711 5709 5708 5708 5706 5705 5704 5702 5700 5699
5709 5698 5685 5689 5701 5713 5712 5716 5717 5714 5706 5701 5693 5703 5744 5745 5744 5743 5741 5740 5739 5737 5735 5733 5730 5726 5723 5721 5719 5717 5716 5714 5713 5711 5708 5705 5704 5703 5702 5702 5701 5699 5697 5695
5705 5694 5686 5678 5688 5700 5701 5708 5713 5708 5697 5698 5703 5709 5726 5733 5734 5735 5736 5736 5735 5734 5731 5729 5725 5723 5721 5719 5718 5716 5714 5712 5710 5708 5704 5701 5700 5699 5698 5698 5697 5696 5694 5692
5699 5688 5694 5699 5705 5705 5703 5704 5707 5707 5708 5702 5708 5714 5723 5730 5731 5733 5733 5732 5730 5728 5727 5725 5722 5720 5718 5716 5715 5713 5711 5709 5707 5703 5700 5697 5696 5695 5694 5693 5692 5691 5690 5688
5692 5685 5689 5691 5702 5702 5700 5705 5706 5708 5712 5711 5713 5714 5731 5734 5733 5730 5728 5727 5724 5723 5723 5723 5721 5718 5715 5713 5711 5709 5707 5706 5703 5700 5696 5694 5691 5689 5687 5687 5686 5685 5684 5683
5681 5679 5674 5676 5693 5692 5688 5705 5707 5708 5713 5713 5705 5713 5726 5724 5723 5723 5723 5723 5722 5721 5721 5719 5718 5716 5714 5713 5710 5706 5705 5703 5699 5695 5692 5689 5687 5684 5682 5682 5681 5679 5677 5676
5676 5673 5670 5670 5675 5663 5696 5721 5718 5711 5713 5718 5717 5720 5722 5722 5723 5725 5725 5723 5721 5720 5719 5717 5716 5715 5714 5713 5709 5706 5703 5699 5695 5692 5688 5685 5683 5680 5678 5677 5675 5674 5673 5671
5682 5671 5663 5662 5661 5672 5696 5709 5710 5703 5702 5716 5715 5716 5718 5722 5719 5717 5722 5722 5720 5719 5718 5716 5716 5714 5712 5710 5708 5704 5699 5695 5692 5688 5685 5682 5679 5676 5673 5671 5670 5670 5668 5666
5679 5673 5661 5657 5652 5656 5683 5705 5714 5704 5689 5709 5713 5710 5712 5711 5698 5702 5716 5717 5716 5716 5715 5713 5712 5711 5708 5707 5705 5700 5695 5691 5688 5686 5684 5680 5677 5673 5669 5667 5666 5665 5664 5662
5660 5659 5654 5652 5652 5665 5689 5701 5703 5678 5681 5705 5709 5708 5706 5701 5700 5706 5711 5711 5710 5709 5709 5709 5707 5704 5703 5703 5700 5695 5692 5689 5687 5685 5681 5677 5674 5670 5667 5664 5663 5661 5659 5657
5653 5650 5651 5652 5646 5654 5686 5688 5682 5683 5699 5701 5702 5703 5701 5700 5702 5702 5702 5702 5702 5701 5702 5701 5699 5697 5697 5697 5694 5690 5687 5687 5684 5681 5677 5674 5670 5668 5665 5660 5658 5657 5654 5652
5653 5655 5652 5653 5655 5671 5680 5680 5686 5691 5689 5692 5693 5697 5696 5693 5693 5694 5694 5694 5695 5695 5694 5694 5692 5690 5690 5690 5688 5684 5682 5682 5679 5675 5672 5669 5667 5663 5660 5657 5653 5651 5650 5647
5652 5658 5653 5652 5659 5668 5673 5676 5680 5683 5683 5686 5688 5689 5690 5687 5687 5687 5687 5687 5687 5687 5687 5686 5684 5682 5682 5682 5682 5680 5679 5678 5674 5669 5666 5664 5661 5658 5656 5652 5650 5647 5645 5643
5640 5645 5643 5644 5653 5659 5664 5668 5671 5675 5677 5678 5680 5681 5681 5680 5681 5682 5681 5681 5680 5680 5680 5679 5677 5675 5675 5676 5675 5675 5674 5672 5668 5664 5661 5658 5656 5653 5650 5647 5644 5643 5642 5642
5635 5634 5632 5634 5645 5646 5650 5660 5664 5664 5666 5669 5670 5672 5674 5675 5674 5676 5675 5675 5674 5673 5672 5671 5671 5670 5670 5670 5670 5669 5668 5666 5663 5659 5657 5653 5650 5647 5644 5641 5637 5636 5637 5637